This is the latest recevied weather packets stored in our database for station/object HB9FHL-13. If no packets are shown the sender has not sent any weather packets the latest 10 day(s).
| Time | Temp. | Humidity | Pressure | Rain* | Wind** | Luminosity | Snow |
|---|---|---|---|---|---|---|---|
| 1788195458 | 21.67° C | - | 1026.9 hPa | 3.3 mm | - | - | - |
| 1788195158 | 21.67° C | - | 1024.9 hPa | 3.3 mm | - | - | - |
| 1788194857 | 21.67° C | - | 1020.4 hPa | 3.3 mm | - | - | - |
| 1788194559 | 22.22° C | - | 1026.5 hPa | 3.3 mm | - | - | - |
| 1788194256 | 21.67° C | - | 1020.4 hPa | 3.3 mm | - | - | - |
| 1788193956 | 22.78° C | - | 1022.3 hPa | 3.3 mm | - | - | - |
| 1788193655 | 22.78° C | - | 1018.2 hPa | 3.3 mm | - | - | - |
| 1788193355 | 22.22° C | - | 1019.9 hPa | 3.3 mm | - | - | - |
| 1788193054 | 21.11° C | - | 1025.4 hPa | 3.3 mm | - | - | - |
| 1788192754 | 22.22° C | - | 1023.1 hPa | 3.3 mm | - | - | - |
| 1788192453 | 22.22° C | - | 1021 hPa | 3.3 mm | - | - | - |
| 1788192152 | 22.22° C | - | 1019.2 hPa | 3.3 mm | - | - | - |
| 1788191967 | 21.67° C | - | 1020.2 hPa | 3.3 mm | - | - | - |
| 1788191852 | 21.67° C | - | 1020.2 hPa | 3.3 mm | - | - | - |
| 1788191599 | 21.67° C | - | 1016.5 hPa | 3.3 mm | - | - | - |
| 1788191551 | 21.67° C | - | 1016.5 hPa | 3.3 mm | - | - | - |
| 1788191251 | 22.22° C | - | 1020.2 hPa | 3.3 mm | - | - | - |
| 1788190985 | 21.67° C | - | 1017.8 hPa | 3.3 mm | - | - | - |
| 1788190950 | 21.67° C | - | 1017.8 hPa | 3.3 mm | - | - | - |
| 1788190650 | 22.22° C | - | 1019.2 hPa | 3.3 mm | - | - | - |
| 1788190349 | 21.67° C | - | 1021.4 hPa | 3.3 mm | - | - | - |
| 1788190096 | 21.67° C | - | 1012.4 hPa | 3.3 mm | - | - | - |
| 1788190049 | 21.67° C | - | 1012.4 hPa | 3.3 mm | - | - | - |
| 1788189745 | 22.22° C | - | 1021.2 hPa | 3.3 mm | - | - | - |
| 1788189447 | 21.67° C | - | 1020.1 hPa | 3.3 mm | - | - | - |
* Rain since midnight (hover to see other rain measurements)
** Current wind speed in m/s (hover to see current wind gust speed)